Location: Unspecified
(0.0000°N, 0.0000°E)
Time: 09:36:40
(UTC+00:00)

Transit 2A - All Passes

Search period start: 22 June 2018 00:00
Search period end: 02 July 2018 00:00
Orbit: 601 x 958 km, 66.7° (Epoch: 21 June)

Date Brightness Start Highest point End Pass type
(mag) Time Alt. Az. Time Alt. Az. Time Alt. Az.
22 Jun - 02:40:40 10° N 02:45:07 60° ENE 02:50:01 10° SSE night (unlit)
22 Jun - 13:34:22 10° SSE 13:37:47 15° ESE 13:41:03 10° ENE daylight
22 Jun - 15:15:11 10° SW 15:20:55 43° WNW 15:26:13 10° N daylight
23 Jun - 02:07:04 10° N 02:11:09 33° ENE 02:15:34 10° SE night (unlit)
23 Jun - 03:52:26 10° W 03:54:11 12° WSW 03:55:59 10° SW night (unlit)
23 Jun - 14:40:50 10° SSW 14:46:56 71° WNW 14:52:30 10° NNE daylight
24 Jun - 01:33:59 10° NNE 01:37:11 19° ENE 01:40:35 10° ESE night (unlit)
24 Jun - 03:16:34 10° WNW 03:20:04 21° WSW 03:23:48 10° SSW night (unlit)
24 Jun - 14:06:48 10° SSW 14:12:54 72° ESE 14:18:30 10° NNE daylight
25 Jun - 01:02:37 10° ENE 01:03:13 10° ENE 01:03:50 10° E night (unlit)
25 Jun - 02:41:44 10° NW 02:45:57 36° WSW 02:50:35 10° S night (unlit)
25 Jun - 13:33:03 10° S 13:38:51 44° ESE 13:44:11 10° NE daylight
25 Jun - 15:18:40 10° WSW 15:21:41 14° WNW 15:24:35 10° NW daylight
26 Jun - 02:07:22 10° NNW 02:11:54 65° WSW 02:16:55 10° SSE night (unlit)
26 Jun - 12:59:40 10° SSE 13:04:46 27° ESE 13:09:31 10° NE daylight
26 Jun - 14:43:02 10° WSW 14:47:42 24° WNW 14:52:05 10° NNW daylight
27 Jun - 01:33:20 10° NNW 01:37:53 70° ENE 01:42:54 10° SSE night (unlit)
27 Jun - 12:26:51 10° SSE 12:30:38 17° ESE 12:34:14 10° ENE daylight
27 Jun - 14:08:11 10° SW 14:13:44 38° WNW 14:18:51 10° N daylight
28 Jun - 00:59:40 10° N 01:03:54 38° ENE 01:08:32 10° SE night (unlit)
28 Jun - 02:46:04 10° WSW 02:47:00 10° WSW 02:47:56 10° SW night (unlit)
28 Jun - 13:33:45 10° SSW 13:39:45 63° WNW 13:45:13 10° N daylight
29 Jun - 00:26:25 10° NNE 00:29:57 22° ENE 00:33:42 10° ESE night (unlit)
29 Jun - 02:09:33 10° WNW 02:12:52 19° WSW 02:16:23 10° SSW night (unlit)
29 Jun - 12:59:38 10° SSW 13:05:44 80° ESE 13:11:17 10° NNE daylight
29 Jun - 23:54:09 10° NE 23:55:59 12° ENE 23:57:53 10° E night (unlit)
30 Jun - 01:34:35 10° NW 01:38:45 32° WSW 01:43:17 10° S night (unlit)
30 Jun - 12:25:50 10° S 12:31:41 49° ESE 12:37:02 10° NE daylight
30 Jun - 14:12:14 10° W 14:14:29 12° WNW 14:16:41 10° NW daylight
01 Jul - 01:00:08 10° NNW 01:04:40 57° WSW 01:09:42 10° S night (unlit)
01 Jul - 11:52:22 10° S 11:57:36 30° ESE 12:02:28 10° NE daylight
01 Jul - 13:36:11 10° WSW 13:40:30 21° WNW 13:44:34 10° NNW daylight
